Regional Weather Roundup
Issued by NWS Albany, NY

Home | Current Version | Previous Version | Graphics & Text | Print | Product List | Glossary Off
Versions: 1 2 3 4 5 6 7 8 9 10 11 12 13 14 15 16 17 18 19 20 21 22 23 24 25 26 27 28 29 30 31 32 33 34 35 36 37 38 39 40 41 42 43 44 45 46 47 48 49 50

000
ASUS41 KALY 301110
RWRALY

NEW YORK STATE HOURLY WEATHER ROUNDUP
NATIONAL WEATHER SERVICE ALBANY NY
700 AM EDT THU JUL 30 2015

NOTE: "FAIR" INDICATES FEW OR NO CLOUDS BELOW 12,000 FEET WITH NO
SIGNIFICANT WEATHER AND/OR NO OBSTRUCTIONS TO VISIBILITY.

NYZ032-033-038>043-046>054-057>066-NYZ062>081-301200-
EAST


CITY           SKY/WX    TMP DP  RH WIND       PRES   REMARKS
ALBANY         PTSUNNY   75  66  73 S10       29.86S
GLENS FALLS    SUNNY     68  65  90 CALM      29.85S
POUGHKEEPSIE   CLOUDY    75  70  84 CALM      29.89R
NEWBURGH       CLOUDY    77  73  88 CALM      29.92F
MONTGOMERY     CLOUDY    74  71  91 S3        29.90S
WHITE PLAINS   MOSUNNY   77  73  87 S3        29.92R
ISLIP          PTSUNNY   77  72  84 SW12G17   29.92R
NEW YORK CITY  PTSUNNY   80  71  74 S9        29.91R
CENTRAL PARK   PTSUNNY   80  71  74 VRB3      29.94R
$$

NYZ005>009-017-018-044>046-055-056-301200-
CENTRAL


CITY           SKY/WX    TMP DP  RH WIND       PRES   REMARKS
FULTON         PTSUNNY   78  69  73 SW8       29.80S
SYRACUSE       PTSUNNY   79  71  76 S9        29.80S
ROME           PTSUNNY   73  67  81 E8        29.84S
ELMIRA         MOCLDY    68  67  96 CALM      29.86S FOG
BINGHAMTON     PTSUNNY   70  69  97 S6        29.91R FOG
MONTICELLO     CLOUDY    70  70 100 S6        29.95S
$$

NYZ026>034-041>043-301200-
NORTH


CITY           SKY/WX    TMP DP  RH WIND       PRES   REMARKS
WATERTOWN      PTSUNNY   76  68  76 S5        29.77S HAZE
FORT DRUM      NOT AVBL
MASSENA        SUNNY     72  66  81 CALM      29.76S
SARANAC LAKE   MOSUNNY   60  57  89 CALM      29.85F
PLATTSBURGH    SUNNY     67  65  93 CALM      29.79S
$$

NYZ001>004-010>016-019>021-301200-
WEST


CITY           SKY/WX    TMP DP  RH WIND       PRES   REMARKS
NIAGARA FALLS  MOCLDY    72  61  68 W8        29.84R
BUFFALO        MOCLDY    74  69  85 SW7       29.86R
DUNKIRK        MOCLDY    69  67  93 SW6       29.90R
JAMESTOWN      MOCLDY    66  63  88 W9        29.95S
WELLSVILLE     HVY RAIN  71  68  90 W8        29.95R VSB 1/4
ROCHESTER      HVY RAIN  73  70  90 SW14      29.84R FOG
PENN YAN       LGT RAIN  75  70  84 SW7       29.85S
$$

             KEY
       WCI = WIND CHILL INDEX
       VSB = VISIBILITY
       HX  = HEAT INDEX
$$



USA.gov is the U.S. government's official web portal to all federal, state and local government web resources and services.